• In Latvia
  • List of Countries
  • For 7 days
  • Water Temperature
  • Satellite Maps
  • Weather Map
  • Weather Widgets
  • user-avatar
    Login

    Hourly Weather Lubango

    Today, 21 November, Tuesday

    Time Temperature Precipitation Wind Pressure Humidity
    00:00 +18°C° 0 mm 1 mps 609 mmHg 52%
    01:00 +18°C° 0 mm 1 mps 609 mmHg 52%
    02:00 +18°C° 0.1 mm 1 mps 609 mmHg 53%
    03:00 +16°C° 0.1 mm 1 mps 609 mmHg 55%
    04:00 +15°C° 0.1 mm 0 mps 609 mmHg 56%
    05:00 +18°C° 0.2 mm 1 mps 609 mmHg 54%
    06:00 +19°C° 0.2 mm 1 mps 610 mmHg 52%
    07:00 +20°C° 0.2 mm 1 mps 610 mmHg 50%
    08:00 +22°C° 0.1 mm 1 mps 611 mmHg 45%
    09:00 +24°C° 0.1 mm 1 mps 612 mmHg 40%
    10:00 +26°C° 0.1 mm 1 mps 613 mmHg 34%
    11:00 +26°C° 0.1 mm 1 mps 612 mmHg 35%
    12:00 +26°C° 0.1 mm 2 mps 612 mmHg 37%
    13:00 +26°C° 0.1 mm 2 mps 611 mmHg 38%
    14:00 +25°C° 0.5 mm 2 mps 611 mmHg 39%
    15:00 +25°C° 0.5 mm 2 mps 610 mmHg 40%
    16:00 +24°C° 0.5 mm 2 mps 610 mmHg 42%
    17:00 +23°C° 0 mm 1 mps 609 mmHg 44%
    18:00 +22°C° 0 mm 1 mps 609 mmHg 46%
    19:00 +21°C° 0 mm 1 mps 609 mmHg 48%
    20:00 +20°C° 0 mm 1 mps 609 mmHg 49%
    21:00 +20°C° 0 mm 1 mps 609 mmHg 50%
    22:00 +19°C° 0 mm 1 mps 610 mmHg 52%
    23:00 +19°C° 0 mm 1 mps 609 mmHg 53%

    Tomorrow, 22 November, Wednesday

    Time Temperature Precipitation Wind Pressure Humidity
    00:00 +18°C° 0 mm 1 mps 609 mmHg 54%
    01:00 +18°C° 0 mm 1 mps 608 mmHg 55%
    02:00 +18°C° 0 mm 1 mps 608 mmHg 54%
    03:00 +18°C° 0 mm 1 mps 608 mmHg 54%
    04:00 +18°C° 0 mm 1 mps 608 mmHg 53%
    05:00 +19°C° 0 mm 1 mps 609 mmHg 50%
    06:00 +20°C° 0 mm 1 mps 609 mmHg 48%
    07:00 +21°C° 0 mm 1 mps 610 mmHg 45%
    08:00 +23°C° 0 mm 1 mps 611 mmHg 38%
    09:00 +26°C° 0 mm 1 mps 612 mmHg 31%
    10:00 +28°C° 0 mm 1 mps 613 mmHg 24%
    11:00 +29°C° 0 mm 1 mps 613 mmHg 23%
    12:00 +30°C° 0 mm 2 mps 612 mmHg 22%
    13:00 +30°C° 0 mm 2 mps 612 mmHg 20%
    14:00 +29°C° 0 mm 2 mps 611 mmHg 23%
    15:00 +28°C° 0 mm 2 mps 610 mmHg 25%
    16:00 +27°C° 0 mm 3 mps 609 mmHg 28%
    17:00 +25°C° 0 mm 2 mps 609 mmHg 32%
    18:00 +23°C° 0 mm 2 mps 609 mmHg 36%
    19:00 +21°C° 0 mm 2 mps 609 mmHg 40%
    20:00 +20°C° 0 mm 2 mps 609 mmHg 43%
    21:00 +20°C° 0 mm 1 mps 609 mmHg 46%
    22:00 +19°C° 0 mm 1 mps 609 mmHg 50%
    23:00 +18°C° 0 mm 1 mps 608 mmHg 50%

    Day after tomorrow, 23 November, Thursday

    Time Temperature Precipitation Wind Pressure Humidity
    00:00 +18°C° 0 mm 1 mps 608 mmHg 50%
    01:00 +18°C° 0 mm 1 mps 608 mmHg 50%
    02:00 +18°C° 0 mm 1 mps 607 mmHg 50%
    03:00 +16°C° 0 mm 1 mps 607 mmHg 50%
    04:00 +16°C° 0 mm 1 mps 607 mmHg 50%
    05:00 +18°C° 0 mm 1 mps 608 mmHg 48%
    06:00 +19°C° 0 mm 1 mps 609 mmHg 45%
    07:00 +21°C° 0 mm 1 mps 609 mmHg 42%
    08:00 +23°C° 0 mm 1 mps 610 mmHg 37%
    09:00 +25°C° 0 mm 1 mps 611 mmHg 32%
    10:00 +27°C° 0 mm 1 mps 612 mmHg 27%
    11:00 +28°C° 0 mm 2 mps 611 mmHg 26%
    12:00 +28°C° 0 mm 2 mps 611 mmHg 25%
    13:00 +29°C° 0 mm 2 mps 611 mmHg 24%
    14:00 +28°C° 0 mm 3 mps 610 mmHg 27%
    15:00 +27°C° 0 mm 3 mps 609 mmHg 30%
    16:00 +26°C° 0 mm 3 mps 609 mmHg 32%
    17:00 +24°C° 0 mm 3 mps 609 mmHg 39%
    18:00 +21°C° 0 mm 3 mps 608 mmHg 46%
    19:00 +19°C° 0 mm 2 mps 608 mmHg 53%
    20:00 +18°C° 0 mm 2 mps 608 mmHg 57%
    21:00 +18°C° 0 mm 2 mps 609 mmHg 62%
    22:00 +18°C° 0 mm 1 mps 609 mmHg 66%
    23:00 +18°C° 0 mm 1 mps 608 mmHg 68%

    24 November, Friday

    Time Temperature Precipitation Wind Pressure Humidity
    00:00 +16°C° 0 mm 1 mps 608 mmHg 69%
    01:00 +16°C° 0 mm 1 mps 608 mmHg 70%
    02:00 +16°C° 0 mm 1 mps 608 mmHg 71%
    03:00 +15°C° 0 mm 1 mps 607 mmHg 72%
    04:00 +15°C° 0 mm 1 mps 607 mmHg 73%
    05:00 +16°C° 0.1 mm 1 mps 608 mmHg 69%
    06:00 +18°C° 0.1 mm 1 mps 609 mmHg 65%
    07:00 +19°C° 0.1 mm 1 mps 609 mmHg 60%
    08:00 +21°C° 0 mm 1 mps 610 mmHg 50%
    09:00 +23°C° 0 mm 1 mps 611 mmHg 40%
    10:00 +25°C° 0 mm 1 mps 612 mmHg 31%
    11:00 +26°C° 0 mm 2 mps 611 mmHg 29%
    12:00 +27°C° 0 mm 2 mps 611 mmHg 27%
    13:00 +28°C° 0 mm 3 mps 611 mmHg 25%
    14:00 +27°C° 0 mm 3 mps 610 mmHg 26%
    15:00 +27°C° 0 mm 3 mps 610 mmHg 28%
    16:00 +26°C° 0 mm 3 mps 609 mmHg 30%
    17:00 +24°C° 0 mm 3 mps 609 mmHg 36%
    18:00 +21°C° 0 mm 3 mps 609 mmHg 42%
    19:00 +20°C° 0 mm 2 mps 609 mmHg 48%
    20:00 +19°C° 0 mm 2 mps 609 mmHg 52%
    21:00 +19°C° 0 mm 1 mps 609 mmHg 56%
    22:00 +18°C° 0 mm 1 mps 609 mmHg 60%
    23:00 +16°C° 0 mm 1 mps 609 mmHg 63%

    25 November, Saturday

    Time Temperature Precipitation Wind Pressure Humidity
    00:00 +16°C° 0 mm 1 mps 608 mmHg 67%
    01:00 +14°C° 0 mm 0 mps 608 mmHg 70%
    02:00 +15°C° 0 mm 1 mps 608 mmHg 71%
    03:00 +14°C° 0 mm 1 mps 607 mmHg 72%
    04:00 +14°C° 0 mm 1 mps 607 mmHg 73%
    05:00 +14°C° 0 mm 0 mps 608 mmHg 66%
    06:00 +16°C° 0 mm 0 mps 609 mmHg 60%
    07:00 +17°C° 0 mm 0 mps 610 mmHg 54%
    08:00 +22°C° 0 mm 1 mps 611 mmHg 44%
    09:00 +24°C° 0 mm 1 mps 612 mmHg 35%
    10:00 +27°C° 0 mm 1 mps 613 mmHg 26%
    11:00 +28°C° 0 mm 2 mps 612 mmHg 25%
    12:00 +29°C° 0 mm 2 mps 612 mmHg 24%
    13:00 +30°C° 0 mm 2 mps 611 mmHg 23%
    14:00 +28°C° 0 mm 3 mps 611 mmHg 26%
    15:00 +27°C° 0 mm 3 mps 610 mmHg 29%
    16:00 +25°C° 0 mm 4 mps 609 mmHg 32%
    17:00 +22°C° 0 mm 3 mps 609 mmHg 36%
    18:00 +21°C° 0 mm 3 mps 609 mmHg 40%
    19:00 +19°C° 0 mm 2 mps 609 mmHg 44%
    20:00 +18°C° 0 mm 2 mps 609 mmHg 47%
    21:00 +18°C° 0 mm 1 mps 609 mmHg 50%
    22:00 +16°C° 0 mm 1 mps 609 mmHg 54%
    23:00 +16°C° 0 mm 1 mps 609 mmHg 55%

    26 November, Sunday

    Time Temperature Precipitation Wind Pressure Humidity
    00:00 +16°C° 0 mm 1 mps 608 mmHg 57%
    01:00 +14°C° 0 mm 0 mps 608 mmHg 59%
    02:00 +14°C° 0 mm 0 mps 608 mmHg 60%
    03:00 +14°C° 0 mm 0 mps 608 mmHg 61%
    04:00 +15°C° 0 mm 1 mps 608 mmHg 62%
    05:00 +15°C° 0 mm 1 mps 608 mmHg 59%
    06:00 +16°C° 0 mm 1 mps 609 mmHg 56%
    07:00 +18°C° 0 mm 1 mps 610 mmHg 54%
    08:00 +21°C° 0 mm 1 mps 611 mmHg 46%
    09:00 +23°C° 0 mm 1 mps 612 mmHg 39%
    10:00 +26°C° 0 mm 2 mps 613 mmHg 32%
    11:00 +27°C° 0 mm 2 mps 612 mmHg 31%
    12:00 +27°C° 0 mm 2 mps 612 mmHg 30%
    13:00 +28°C° 0 mm 2 mps 611 mmHg 29%
    14:00 +26°C° 0 mm 3 mps 611 mmHg 33%
    15:00 +24°C° 0 mm 3 mps 610 mmHg 38%
    16:00 +22°C° 0 mm 3 mps 609 mmHg 43%
    17:00 +20°C° 0.1 mm 3 mps 609 mmHg 48%
    18:00 +19°C° 0.1 mm 2 mps 609 mmHg 54%
    19:00 +17°C° 0.1 mm 2 mps 609 mmHg 59%
    20:00 +17°C° 0 mm 2 mps 609 mmHg 62%
    21:00 +16°C° 0 mm 1 mps 609 mmHg 66%
    22:00 +15°C° 0 mm 1 mps 610 mmHg 69%
    23:00 +15°C° 0.1 mm 1 mps 609 mmHg 71%
    Show more